Date String (YYYY-MM-DD hh:mm:ss) UTC,Instrument flags,Ambient pressure (hPa),Sample flow (lpm),Bypass flow (lpm),Sample temperature (°C),Ambient temperature (°C),ASC tube jacket temperature (°C),LED temperature (°C),Box temperature (°C),Sample RH (%),Span deviation,Mass concentration (μg/m³),Mass concentration (μg/m³),Mass concentration (μg/m³)
DateTimeUTC,F1_M11,P_M11,Q1_M11,Q2_M11,T1_M11,T2_M11,T3_M11,T4_M11,T5_M11,U1_M11,ZSPAN_M11,X0_M11,X2_M11,X1_M11
2022-07-01 13:00:00,,0831.2,5.00,0.00,30.6,29.6,00.0,39.4,32.5,27.6,0000.0,0010.11,0004.09,0003.38
2022-07-01 13:01:00,,0831.3,5.00,0.00,30.6,29.6,00.0,39.4,32.5,27.4,0000.0,0010.34,0004.07,0003.38
2022-07-01 13:02:00,,0831.3,4.99,0.00,30.6,29.6,00.0,39.4,32.5,27.4,0000.0,0010.71,0004.05,0003.37
2022-07-01 13:03:00,,0831.3,5.00,0.00,30.6,29.6,00.0,39.4,32.5,27.6,0000.0,0010.82,0004.02,0003.37
2022-07-01 13:04:00,,0831.3,4.99,0.00,30.6,29.6,00.0,39.4,32.5,27.5,0000.0,0010.58,0004.04,0003.38
2022-07-01 13:05:00,,0831.3,5.01,0.00,30.7,29.6,00.0,39.4,32.5,27.4,0000.0,0009.60,0004.01,0003.39
2022-07-01 13:06:00,,0831.3,5.01,0.00,30.7,29.6,00.0,39.5,32.5,27.4,0000.0,0009.69,0003.98,0003.39
2022-07-01 13:07:00,,0831.3,5.00,0.00,30.7,29.6,00.0,39.5,32.5,27.5,0000.0,0009.81,0003.95,0003.40
2022-07-01 13:08:00,,0831.3,5.00,0.00,30.7,29.6,00.0,39.5,32.5,27.5,0000.0,0009.87,0003.97,0003.40
2022-07-01 13:09:00,,0831.3,5.00,0.00,30.7,29.6,00.0,39.5,32.5,27.5,0000.0,0009.89,0003.98,0003.39
2022-07-01 13:10:00,,0831.3,5.00,0.00,30.7,29.6,00.0,39.5,32.5,27.6,0000.0,0009.93,0003.98,0003.38
2022-07-01 13:11:00,,0831.3,4.99,0.00,30.7,29.6,00.0,39.5,32.5,27.6,0000.0,0009.68,0003.96,0003.37
2022-07-01 13:12:00,,0831.4,4.99,0.00,30.7,29.6,00.0,39.5,32.5,27.6,0000.0,0009.25,0003.96,0003.35
2022-07-01 13:13:00,,0831.3,5.00,0.00,30.7,29.7,00.0,39.5,32.5,27.6,0000.0,0009.30,0003.97,0003.35
2022-07-01 13:14:00,,0831.3,5.01,0.00,30.7,29.7,00.0,39.5,32.5,27.6,0000.0,0009.07,0003.98,0003.34
2022-07-01 13:15:00,,0831.2,5.01,0.00,30.7,29.7,00.0,39.5,32.5,27.4,0000.0,0008.72,0003.93,0003.32
2022-07-01 13:16:00,,0831.2,4.99,0.00,30.7,29.7,00.0,39.5,32.5,27.3,0000.0,0008.82,0003.92,0003.30
2022-07-01 13:17:00,,0831.3,4.99,0.00,30.7,29.7,00.0,39.5,32.6,27.4,0000.0,0009.29,0003.95,0003.28
2022-07-01 13:18:00,,0831.2,5.00,0.00,30.7,29.7,00.0,39.5,32.6,27.5,0000.0,0008.91,0003.99,0003.26
2022-07-01 13:19:00,,0831.2,5.00,0.00,30.7,29.7,00.0,39.5,32.6,27.2,0000.0,0008.95,0003.98,0003.23
2022-07-01 13:20:00,,0831.2,5.01,0.00,30.7,29.7,00.0,39.5,32.6,26.8,0000.0,0008.96,0003.97,0003.21
2022-07-01 13:21:00,,0831.2,5.00,0.00,30.8,29.7,00.0,39.5,32.6,26.8,0000.0,0008.96,0003.98,0003.20
2022-07-01 13:22:00,,0831.2,5.00,0.00,30.8,29.6,00.0,39.5,32.6,26.9,0000.0,0009.20,0003.96,0003.18
2022-07-01 13:23:00,,0831.2,4.99,0.00,30.7,28.8,00.0,39.5,32.4,26.9,0000.0,0009.36,0003.93,0003.16
2022-07-01 13:24:00,,0831.2,5.00,0.00,30.7,28.0,00.0,39.4,32.3,27.2,0000.0,0008.91,0003.89,0003.14
2022-07-01 13:25:00,,0831.2,5.00,0.00,30.6,27.6,00.0,39.4,32.1,27.2,0000.0,0008.61,0003.84,0003.13
2022-07-01 13:26:00,,0831.3,5.00,0.00,30.4,27.6,00.0,39.3,32.0,26.8,0000.0,0008.64,0003.79,0003.08
2022-07-01 13:27:00,,0831.3,5.00,0.00,30.4,27.7,00.0,39.3,31.9,27.4,0000.0,0008.62,0003.77,0003.04
2022-07-01 13:28:00,,0831.3,5.01,0.00,30.3,27.9,00.0,39.3,31.9,27.4,0000.0,0007.92,0003.72,0002.98
2022-07-01 13:29:00,,0831.3,5.00,0.00,30.2,28.0,00.0,39.2,31.9,27.1,0000.0,0007.85,0003.68,0002.95
2022-07-01 13:30:00,,0831.4,5.00,0.00,30.2,28.2,00.0,39.2,31.9,26.8,0000.0,0007.75,0003.63,0002.91
2022-07-01 13:31:00,,0831.3,5.00,0.00,30.2,28.3,00.0,39.2,31.9,26.7,0000.0,0007.78,0003.62,0002.88
2022-07-01 13:32:00,,0831.3,4.99,0.00,30.2,28.4,00.0,39.1,31.9,26.9,0000.0,0007.89,0003.60,0002.84
2022-07-01 13:33:00,,0831.3,5.00,0.00,30.2,28.5,00.0,39.1,32.0,27.0,0000.0,0008.12,0003.60,0002.81
2022-07-01 13:34:00,,0831.4,5.00,0.00,30.2,28.6,00.0,39.1,32.0,27.2,0000.0,0007.73,0003.59,0002.79
2022-07-01 13:35:00,,0831.4,5.00,0.00,30.2,28.7,00.0,39.1,32.0,27.1,0000.0,0007.64,0003.57,0002.78
2022-07-01 13:36:00,,0831.4,5.00,0.00,30.2,28.8,00.0,39.1,32.0,27.1,0000.0,0008.44,0003.55,0002.77
2022-07-01 13:37:00,,0831.4,4.99,0.00,30.2,28.8,00.0,39.1,32.0,27.0,0000.0,0008.38,0003.57,0002.79
2022-07-01 13:38:00,,0831.4,5.01,0.00,30.2,28.9,00.0,39.1,32.0,27.3,0000.0,0008.29,0003.58,0002.79
2022-07-01 13:39:00,,0831.5,5.01,0.00,30.2,28.9,00.0,39.1,32.0,27.4,0000.0,0008.57,0003.59,0002.79
2022-07-01 13:40:00,,0831.5,5.01,0.00,30.2,29.0,00.0,39.1,32.0,27.4,0000.0,0008.75,0003.59,0002.79
2022-07-01 13:41:00,,0831.5,5.00,0.00,30.2,29.0,00.0,39.1,32.1,27.5,0000.0,0008.78,0003.60,0002.81
2022-07-01 13:42:00,,0831.5,4.99,0.00,30.2,29.0,00.0,39.1,32.1,27.5,0000.0,0008.79,0003.62,0002.85
2022-07-01 13:43:00,,0831.5,5.01,0.00,30.2,29.1,00.0,39.1,32.1,27.3,0000.0,0008.76,0003.62,0002.90
2022-07-01 13:44:00,,0831.5,5.01,0.00,30.3,29.1,00.0,39.1,32.1,27.1,0000.0,0008.42,0003.65,0002.93
2022-07-01 13:45:00,,0831.5,4.99,0.00,30.3,29.1,00.0,39.1,32.1,27.1,0000.0,0008.69,0003.64,0002.96
2022-07-01 13:46:00,,0831.5,4.99,0.00,30.3,29.2,00.0,39.1,32.1,26.9,0000.0,0010.36,0003.71,0002.99
2022-07-01 13:47:00,,0831.5,5.00,0.00,30.3,29.2,00.0,39.1,32.2,26.7,0000.0,0010.00,0003.78,0003.02
2022-07-01 13:48:00,,0831.5,4.99,0.00,30.3,29.2,00.0,39.1,32.2,26.8,0000.0,0010.02,0003.81,0003.03
2022-07-01 13:49:00,,0831.5,4.99,0.00,30.3,29.2,00.0,39.1,32.2,26.9,0000.0,0010.74,0003.80,0003.03
2022-07-01 13:50:00,,0831.5,4.99,0.00,30.4,29.3,00.0,39.1,32.2,27.0,0000.0,0010.90,0003.80,0003.05
2022-07-01 13:51:00,,0831.5,5.00,0.00,30.4,29.3,00.0,39.1,32.2,26.8,0000.0,0011.13,0003.79,0003.05
2022-07-01 13:52:00,,0831.5,5.01,0.00,30.4,29.3,00.0,39.1,32.2,26.7,0000.0,0011.41,0003.78,0003.04
2022-07-01 13:53:00,,0831.5,5.01,0.00,30.4,29.3,00.0,39.2,32.3,26.5,0000.0,0012.03,0003.80,0003.03
2022-07-01 13:54:00,,0831.5,4.99,0.00,30.4,29.4,00.0,39.2,32.3,26.5,0000.0,0012.06,0003.81,0003.03
2022-07-01 13:55:00,,0831.5,5.00,0.00,30.4,29.4,00.0,39.2,32.3,26.2,0000.0,0011.95,0003.79,0003.02
2022-07-01 13:56:00,,0831.5,5.00,0.00,30.4,29.4,00.0,39.2,32.3,26.3,0000.0,0011.84,0003.83,0003.02
2022-07-01 13:57:00,,0831.5,5.00,0.00,30.5,29.4,00.0,39.2,32.3,26.4,0000.0,0010.52,0003.83,0003.01
2022-07-01 13:58:00,,0831.5,5.00,0.00,30.5,29.4,00.0,39.2,32.3,26.6,0000.0,0010.13,0003.81,0002.97
2022-07-01 13:59:00,,0831.5,5.00,0.00,30.5,29.5,00.0,39.2,32.4,27.0,0000.0,0010.70,0003.79,0002.96
